[TLELIST] Archives

 

[TLELIST] Current TLEs

October 3rd 2025 PDT

0 HST 1 20580U 90037B 25275.63604022 .00014602 00000-0 53183-3 0 9994 2 20580 28.4692 35.9607 0002420 158.0119 202.0580 15.26677300749117 0 ISS (ZARYA) 1 25544U 98067A 25276.04750140 .00015459 00000-0 28185-3 0 9994 2 25544 51.6327 132.4783 0001027 191.3758 168.7208 15.49638709531898 0 CXO 1 25867U 99040B 25277.86155200 .00001110 00000-0 00000-0 0 9993 2 25867 51.6567 125.1996 8254346 310.4211 0.5468 0.37802090 16354 ...Continue Reading

[TLELIST] Current TLEs

October 2nd 2025 PDT

0 HST 1 20580U 90037B 25275.04770603 .00014660 00000-0 53426-3 0 9992 2 20580 28.4693 39.9574 0002467 151.9892 208.0836 15.26660942749020 0 ISS (ZARYA) 1 25544U 98067A 25275.08016394 .00015216 00000-0 27786-3 0 9990 2 25544 51.6326 137.2684 0001066 187.1210 172.9763 15.49606939531746 0 CXO 1 25867U 99040B 25277.86155199 .00001110 00000-0 00000+0 0 9999 2 25867 51.6567 125.1996 8254346 310.4211 0.5468 0.37802090 16354 ...Continue Reading

[TLELIST] Current TLEs

October 1st 2025 PDT

0 HST 1 20580U 90037B 25274.06713468 .00014070 00000-0 51294-3 0 9995 2 20580 28.4691 46.6178 0002535 142.6464 217.4307 15.26629054748879 0 ISS (ZARYA) 1 25544U 98067A 25274.11280702 .00018412 00000-0 33478-3 0 9995 2 25544 51.6324 142.0598 0001038 182.7689 177.3294 15.49574764531593 0 CXO 1 25867U 99040B 25275.21632039 .00001123 00000-0 00000-0 0 9994 2 25867 51.6047 125.3035 8256494 310.4302 0.3759 0.37799727 16342 ...Continue Reading

[TLELIST] Current TLEs

September 30th 2025 PDT

0 HST 1 20580U 90037B 25273.08654293 .00012724 00000-0 46368-3 0 9996 2 20580 28.4690 53.2777 0002577 134.1979 225.8828 15.26595143748726 0 ISS (ZARYA) 1 25544U 98067A 25273.14542721 .00018065 00000-0 32912-3 0 9995 2 25544 51.6321 146.8490 0001095 177.0023 183.0973 15.49533591531440 0 CXO 1 25867U 99040B 25275.21632039 .00001123 00000-0 00000-0 0 9994 2 25867 51.6047 125.3035 8256494 310.4302 0.3759 0.37799727 16342 ...Continue Reading

[TLELIST] Current TLEs

September 30th 2025 PDT

0 HST 1 20580U 90037B 25273.08654293 .00012724 00000-0 46368-3 0 9996 2 20580 28.4690 53.2777 0002577 134.1979 225.8828 15.26595143748726 0 ISS (ZARYA) 1 25544U 98067A 25273.14542721 .00018065 00000-0 32912-3 0 9995 2 25544 51.6321 146.8490 0001095 177.0023 183.0973 15.49533591531440 0 CXO 1 25867U 99040B 25275.21632039 .00001123 00000-0 00000-0 0 9994 2 25867 51.6047 125.3035 8256494 310.4302 0.3759 0.37799727 16342 ...Continue Reading

[TLELIST] Current TLEs

September 30th 2025 PDT

0 HST 1 20580U 90037B 25273.08654293 .00012724 00000-0 46368-3 0 9996 2 20580 28.4690 53.2777 0002577 134.1979 225.8828 15.26595143748726 0 ISS (ZARYA) 1 25544U 98067A 25273.14542721 .00018065 00000-0 32912-3 0 9995 2 25544 51.6321 146.8490 0001095 177.0023 183.0973 15.49533591531440 0 CXO 1 25867U 99040B 25275.21632039 .00001123 00000-0 00000-0 0 9994 2 25867 51.6047 125.3035 8256494 310.4302 0.3759 0.37799727 16342 ...Continue Reading

[TLELIST] Current TLEs

September 29th 2025 PDT

0 HST 1 20580U 90037B 25271.77905519 .00012641 00000-0 46110-3 0 9993 2 20580 28.4687 62.1579 0002615 120.7705 239.3148 15.26559943748523 0 ISS (ZARYA) 1 25544U 98067A 25272.11352776 .00016154 00000-0 29563-3 0 9995 2 25544 51.6321 151.9589 0001160 174.5879 185.5122 15.49493379531284 0 CXO 1 25867U 99040B 25272.57265787 .00001049 00000-0 00000-0 0 9999 2 25867 51.5546 125.3902 8260299 310.4462 0.4233 0.37800873 16335 ...Continue Reading

[TLELIST] Current TLEs

September 28th 2025 PDT

0 HST 1 20580U 90037B 25270.60229101 .00010348 00000-0 37647-3 0 9997 2 20580 28.4683 70.1493 0002669 109.6281 250.4602 15.26531087748345 0 ISS (ZARYA) 1 25544U 98067A 25271.14609814 .00019357 00000-0 35289-3 0 9995 2 25544 51.6325 156.7474 0001396 176.1819 183.9180 15.49463105531131 0 CXO 1 25867U 99040B 25272.57265787 .00001049 00000-0 00000-0 0 9999 2 25867 51.5546 125.3902 8260299 310.4462 0.4233 0.37800873 16335 ...Continue Reading

[TLELIST] Current TLEs

September 27th 2025 PDT

0 HST 1 20580U 90037B 25269.75239279 .00010298 00000-0 37481-3 0 9998 2 20580 28.4680 75.9211 0002700 101.7078 258.3820 15.26513054748215 0 ISS (ZARYA) 1 25544U 98067A 25269.92065904 .00016416 00000-0 30111-3 0 9996 2 25544 51.6332 162.8128 0001049 155.2675 204.8364 15.49415038530943 0 CXO 1 25867U 99040B 25272.57265787 .00001049 00000-0 00000-0 0 9999 2 25867 51.5546 125.3902 8260299 310.4462 0.4233 0.37800873 16335 ...Continue Reading

[TLELIST] Current TLEs

September 26th 2025 PDT

0 HST 1 20580U 90037B 25269.16399598 .00011032 00000-0 40219-3 0 9994 2 20580 28.4674 79.9171 0002756 96.0742 264.0167 15.26502301748123 0 ISS (ZARYA) 1 25544U 98067A 25268.88924235 .00024001 00000-0 42185-3 0 9994 2 25544 51.6319 167.9312 0003311 8.6325 351.4720 15.50358116530788 0 CXO 1 25867U 99040B 25269.92889251 .00000947 00000-0 00000-0 0 9998 2 25867 51.5121 125.4703 8263672 310.4534 0.4622 0.37804985 16321 ...Continue Reading
  • This mailing list is a public mailing list - anyone may join or leave, at any time.
  • This mailing list is announce-only.

International Space Station (ISS) / Hubble Space Telescope (HST) / Chandra X-Ray Observatory Orbital Data via EMAIL

Privacy Policy:

Private list